Location: Fort Worth, Tx
(32.7431°N, 97.3695°W)
Time: 08:20:13
(UTC-04:00)

Explorer 11/Cluster Stage 4 - Pass Details

Date: 05 February 2023
Orbit: 466 x 1241 km, 28.8° (Epoch: 02 April)

Event Time Altitude Azimuth Distance (km) Brightness Sun altitude
Exits shadow 04:30:06 19° 106° (ESE) 2,501 9.4 -48.8°
Drops below altitude 10° 04:32:26 10° 95° (E) 3,143 10.1 -48.4°
Sets 04:35:45 0° 87° (E) 4,153 11.0 -47.7°
